STARLINK-31694 (60140 NORAD) Tracking and Keplerian Element Data

This shows tracking and keplerian element data for the satellite.

Feedback or suggestion? Click here.




ElementValue
Catalog60140
NameSTARLINK-31694
Epoch Orbit1785
Epoch Day286.74051712
Epoch Year2024
RAAN187.3359
Inclination53.1592
Eccentricity0.0001067
Argument of Perigee44.3259
Mean Anonmoly315.7831
Mean Motion15.39655043
Decay Rate7.113E-05
L11 60140U 24120F 24286.74051712 .00007113 00000+0 18742-3 0 9995
L22 60140 53.1592 187.3359 0001067 44.3259 315.7831 15.39655043 17855



Live tracking and technical data element details for STARLINK-31694 (NORAD 60140). STARLINK-31694 can be tracked NOW for your location showing map with azimuth and elevation plus other details from your city location.







IsCatalogInMostPopularTable: catalog: 60140, numindb: 12
Update: records affected: 1



GetName: 60140 STARLINK-31694

Hit Count: updated at: Thu, 23 Jan 2025 13:57:51 GMT